Regional Weather Roundup
Issued by NWS

Home | Current Version | Previous Version | Text Only | Print | Product List | Glossary On
Versions: 1 2 3 4 5 6 7 8 9 10 11 12 13 14 15 16 17 18 19 20 21 22 23 24 25 26 27 28 29 30 31 32 33 34 35 36 37 38 39 40 41 42 43 44 45 46 47 48 49 50
000
ASUS43 KLMK 241810
RWRKY
KENTUCKY REGIONAL WEATHER ROUNDUP
NATIONAL WEATHER SERVICE LOUISVILLE KY
200 PM EDT SUN SEP 24 2017

NOTE "FAIR" INDICATES FEW OR NO CLOUDS BELOW 12,000 FEET
WITH NO SIGNIFICANT WEATHER AND/OR OBSTRUCTIONS TO VISIBILITY.

KYZ001>023-026-027-061>063-070>075-241900-
WESTERN AND SOUTH CENTRAL KENTUCKY

CITY           SKY/WX    TMP DP  RH WIND       PRES   REMARKS
PADUCAH        MOSUNNY   87  66  49 E3        30.01F
HENDERSON      SUNNY     89  64  43 NE7       30.04F HX  90
OWENSBORO      SUNNY     88  65  46 NW5       30.04F HX  90
HOPKINSVILLE   MOSUNNY   87  69  53 W5        30.03F HX  91
BOWLING GREEN  SUNNY     87  68  52 VRB5      30.04F HX  90
GLASGOW        MOSUNNY   87  69  53 CALM      30.06F HX  91
$$

KYZ024-025-028>034-038-045-046-053-241900-
NORTH CENTRAL KENTUCKY

CITY           SKY/WX    TMP DP  RH WIND       PRES   REMARKS
LOUISVILLE/SDF MOSUNNY   89  59  36 SE12      30.05F
LOUISVILLE/LOU SUNNY     89  61  38 VRB5      30.06F
FORT KNOX      SUNNY     85  68  56 E6        30.05F
$$

KYZ035>037-039>044-047>052-055>060-089>105-241900-
NORTHEAST KENTUCKY

CITY           SKY/WX    TMP DP  RH WIND       PRES   REMARKS
LEXINGTON      SUNNY     86  59  39 E8        30.09F
COVINGTON      MOSUNNY   88  58  36 SE12      30.09F
FRANKFORT      SUNNY     88  59  37 SE10      30.07F
$$

KYZ054-064>069-076>088-106>120-241900-
SOUTHEAST KENTUCKY

CITY           SKY/WX    TMP DP  RH WIND       PRES   REMARKS
JACKSON        SUNNY     83  64  52 CALM      30.11F
LONDON         MOSUNNY   83  62  49 W3        30.10F
SOMERSET       PTSUNNY   81  63  54 SW3       30.09F
MIDDLESBORO    SUNNY     82  63  51 CALM      30.10F
MONTICELLO     CLOUDY    86  67  52 VRB7      30.09F
$$




USA.gov is the U.S. government's official web portal to all federal, state and local government web resources and services.